Wind_Speed
20 20 20 19 19 20 20 20 20 20 20 20 20 20 19 20 20 20 20 20 20 20 20 20 20 20 20 20 20 19 19 19 18 18 17 17 17 16
21 21 21 21 21 21 21 21 21 21 21 21 21 21 21 20 20 20 21 21 21 20 20 20 20 20 20 20 20 20 19 19 19 18 18 18 18 17
21 21 22 22 22 22 22 22 22 22 22 22 22 22 21 21 21 21 22 22 22 21 21 21 21 21 20 20 20 20 20 19 20 19 19 19 18 18
22 22 22 23 23 23 23 23 23 23 23 23 23 23 23 22 23 23 23 23 23 23 23 22 22 21 21 21 21 20 20 20 20 20 20 19 19 19
23 23 23 23 23 23 24 24 24 24 24 24 24 24 24 24 24 24 24 24 24 24 23 23 22 22 22 22 22 22 21 21 20 20 20 19 19 19
24 24 24 24 24 25 25 26 26 25 25 25 26 25 25 25 25 25 25 25 25 24 24 24 23 23 23 23 23 23 22 22 21 20 20 20 19 19
25 25 25 25 26 26 26 27 27 27 27 27 27 26 26 26 26 26 25 25 25 25 25 24 24 24 23 23 23 23 23 23 22 21 21 21 20 20
26 26 26 27 27 27 27 27 27 27 27 27 27 27 26 26 26 25 25 24 24 24 25 25 25 25 25 24 24 23 23 23 23 23 23 22 22 21
27 27 27 27 27 27 27 28 27 27 27 27 26 26 26 26 26 25 24 24 24 24 24 25 25 26 26 25 25 24 24 24 23 23 23 23 23 23
28 29 28 28 27 28 28 27 27 28 28 27 27 26 26 26 26 26 26 25 25 25 25 25 25 24 25 26 26 25 25 25 25 25 24 23 24 23
29 29 29 29 29 29 29 28 28 29 29 28 28 28 27 27 27 27 27 27 26 26 26 26 26 26 25 25 25 26 26 26 25 24 24 24 24 24
30 30 31 31 31 31 30 30 30 30 30 29 29 29 29 28 28 28 28 28 28 27 27 26 26 26 25 24 25 25 25 26 25 25 25 25 25 25
30 31 31 32 32 32 32 31 31 30 30 30 30 30 30 29 28 28 28 28 27 27 27 27 27 26 26 25 25 25 25 26 26 26 25 26 26 25
30 31 31 31 31 32 32 32 32 31 31 31 31 31 30 30 29 28 28 28 28 27 27 27 27 27 26 26 25 25 26 26 26 26 26 26 26 26
31 32 32 32 31 31 32 32 32 33 32 32 32 32 31 30 30 29 29 29 28 28 28 28 27 27 27 26 25 25 25 25 26 27 27 27 27 27
32 32 33 33 33 32 32 32 32 32 33 33 32 32 32 31 30 30 29 29 29 29 29 29 29 28 28 27 26 26 26 27 27 27 28 28 28 28
33 33 33 33 33 33 33 33 33 33 33 34 34 33 33 32 32 31 31 30 29 29 29 29 29 29 29 28 28 27 28 28 28 28 29 29 29 30
33 33 33 33 33 33 33 33 33 33 33 34 34 34 34 33 32 33 32 32 31 30 31 31 31 31 30 29 29 29 29 28 28 29 29 30 30 31
33 33 32 32 32 33 33 32 32 33 33 33 33 34 34 34 33 33 33 33 33 32 32 31 31 31 31 30 30 30 30 30 30 30 30 30 31 31
32 32 31 31 31 32 32 33 33 33 32 32 33 34 34 34 34 34 34 34 34 33 33 32 32 31 31 31 31 31 31 31 31 31 32 32 31 32
31 31 31 31 31 31 31 31 31 31 32 32 32 32 33 33 33 34 34 34 34 34 33 32 33 33 33 33 32 32 32 33 33 33 33 33 33 33
30 31 31 31 31 31 31 31 31 32 32 31 31 32 33 34 34 34 34 34 34 34 34 33 33 34 34 34 33 33 34 34 35 35 35 35 34 34
30 30 30 30 30 30 30 30 30 31 31 32 32 32 32 33 34 34 34 34 35 35 34 34 34 34 34 35 34 35 36 36 36 36 36 36 36 35
Wind_Direction
270 271 273 274 274 276 277 277 278 279 280 280 280 280 281 282 282 282 282 283 284 284 285 284 283 284 283 281 280 280 282 282 283 284 283 279 280 281
272 272 272 274 275 276 276 276 277 277 279 280 279 279 279 281 282 282 282 283 281 282 282 283 284 284 283 282 280 279 280 281 281 281 282 280 278 278
272 272 273 273 275 276 276 276 276 277 278 279 279 279 279 280 281 281 282 282 281 279 280 281 281 282 282 281 280 279 279 279 280 281 281 281 277 275
272 273 274 274 275 275 276 276 276 276 277 278 279 279 279 279 279 280 282 282 280 279 279 280 281 281 280 280 280 278 277 278 279 280 281 280 276 273
273 274 275 276 275 276 276 276 276 276 278 278 278 278 278 278 279 279 280 280 280 280 278 279 280 280 280 279 279 277 276 276 277 278 279 279 278 275
274 274 275 276 276 277 276 275 275 276 277 278 277 277 277 277 277 278 279 278 278 277 277 277 278 279 279 279 278 276 275 274 274 275 276 277 278 276
273 273 274 276 277 277 277 276 275 275 276 277 277 278 278 277 276 278 279 278 277 276 275 275 276 277 277 278 276 275 274 273 272 272 274 275 276 275
272 273 274 276 278 278 278 278 276 275 275 277 277 278 278 278 278 278 279 278 278 278 277 275 275 275 276 275 275 274 273 272 271 271 272 272 275 274
272 274 275 275 276 278 279 278 277 276 276 277 277 278 278 277 278 278 279 279 279 278 278 277 277 276 275 274 273 273 271 270 270 270 270 271 272 272
273 273 275 276 275 276 278 278 276 275 275 276 277 276 276 276 276 277 277 278 279 278 278 279 278 278 278 276 273 272 272 271 269 268 269 269 270 271
274 274 275 275 275 275 276 276 275 275 275 276 276 276 275 275 275 276 277 278 277 277 278 279 279 278 278 277 275 274 272 272 271 270 270 269 269 270
275 275 275 275 276 274 273 273 274 274 275 275 275 275 275 275 275 275 276 277 277 277 276 278 278 278 278 277 275 274 272 271 271 271 270 270 270 270
277 277 277 276 275 274 272 271 272 272 272 272 273 274 274 274 274 276 276 276 277 276 275 275 276 277 278 276 274 273 271 270 271 271 271 271 270 270
279 278 278 277 275 273 273 272 271 271 272 271 271 272 273 273 274 276 276 275 275 276 275 274 274 275 277 276 274 272 269 269 270 271 271 271 270 269
280 279 279 278 276 274 274 274 273 271 271 271 271 271 271 271 272 274 275 276 276 276 275 274 274 275 275 275 274 272 270 269 270 270 271 271 270 270
279 279 278 277 276 276 275 275 274 273 271 270 270 270 270 270 271 272 273 274 275 275 274 273 273 274 274 273 272 271 270 270 270 269 269 269 269 270
279 278 278 277 276 275 275 274 273 272 272 270 269 268 268 269 269 270 272 273 274 273 272 272 273 274 273 272 270 269 270 270 270 270 270 270 269 270
280 279 278 277 276 275 274 273 272 272 272 271 269 267 268 268 269 270 271 271 272 272 272 271 272 272 271 270 270 269 269 270 270 271 271 272 271 270
281 280 279 277 277 276 275 273 272 272 271 271 269 267 266 267 268 269 270 271 271 271 271 271 271 270 269 268 268 268 269 271 271 271 272 272 273 271
282 281 280 279 277 276 276 275 274 274 272 271 270 269 267 267 267 268 270 271 271 271 270 270 270 270 269 268 268 268 269 271 271 272 273 273 273 272
283 282 282 281 281 279 278 277 275 274 273 272 271 269 268 268 268 268 269 269 270 270 269 268 269 269 269 268 268 267 268 270 271 272 273 273 273 273
284 283 282 281 281 280 279 278 276 275 274 274 273 272 270 269 269 269 269 269 269 269 268 267 268 269 269 268 268 267 268 269 270 271 272 273 273 274
284 283 283 281 279 278 278 277 277 276 275 274 274 273 273 272 272 271 270 269 269 268 267 267 267 268 268 269 269 269 269 269 270 271 271 272 273 275
Height
5815 5815 5816 5816 5815 5815 5815 5816 5816 5816 5816 5815 5815 5814 5814 5814 5813 5813 5813 5812 5812 5811 5811 5810 5810 5810 5809 5809 5809 5808 5808 5807 5807 5807 5806 5806 5806 5805
5810 5810 5810 5811 5810 5810 5810 5810 5810 5810 5810 5810 5809 5809 5809 5808 5808 5807 5807 5807 5806 5806 5805 5805 5804 5804 5804 5803 5803 5803 5803 5802 5802 5802 5801 5801 5801 5801
5804 5805 5805 5805 5805 5805 5804 5804 5804 5804 5804 5804 5803 5803 5803 5802 5802 5801 5801 5800 5800 5800 5799 5799 5799 5798 5798 5798 5797 5797 5797 5797 5796 5796 5796 5795 5795 5796
5798 5799 5799 5799 5799 5799 5798 5798 5798 5798 5798 5798 5797 5797 5796 5796 5796 5795 5795 5794 5793 5793 5793 5793 5792 5792 5792 5791 5791 5791 5791 5791 5791 5790 5790 5790 5790 5790
5792 5792 5792 5792 5792 5792 5792 5792 5791 5791 5791 5791 5791 5790 5790 5789 5789 5789 5788 5787 5787 5786 5786 5786 5786 5785 5785 5785 5785 5785 5785 5785 5785 5784 5784 5784 5784 5784
5785 5786 5786 5785 5785 5785 5785 5784 5784 5784 5784 5784 5783 5783 5782 5782 5782 5781 5781 5780 5780 5779 5779 5779 5779 5778 5778 5778 5778 5778 5778 5778 5778 5778 5778 5778 5778 5778
5778 5778 5778 5778 5778 5778 5777 5777 5776 5776 5776 5776 5776 5775 5775 5774 5774 5773 5773 5772 5772 5771 5771 5771 5771 5771 5771 5771 5771 5771 5771 5771 5771 5772 5772 5772 5772 5772
5771 5771 5771 5771 5771 5770 5770 5769 5769 5768 5768 5768 5768 5767 5767 5766 5766 5765 5765 5764 5764 5764 5763 5764 5763 5763 5763 5763 5763 5763 5763 5764 5764 5764 5765 5765 5765 5766
5764 5763 5763 5763 5763 5762 5762 5761 5760 5760 5760 5760 5760 5759 5759 5759 5758 5758 5757 5757 5757 5756 5756 5756 5755 5755 5755 5755 5755 5755 5756 5756 5756 5757 5757 5758 5758 5759
5755 5755 5755 5755 5755 5754 5753 5753 5752 5752 5752 5752 5752 5751 5751 5750 5750 5750 5749 5749 5749 5749 5748 5748 5747 5747 5747 5747 5747 5747 5748 5748 5749 5749 5749 5750 5751 5751
5747 5747 5746 5746 5746 5745 5745 5745 5744 5744 5743 5743 5743 5743 5742 5742 5742 5742 5742 5741 5741 5741 5741 5740 5740 5739 5739 5739 5739 5739 5740 5740 5741 5741 5742 5742 5743 5744
5738 5738 5737 5737 5736 5736 5736 5736 5735 5735 5735 5735 5735 5735 5734 5734 5733 5733 5733 5733 5733 5733 5733 5732 5731 5731 5731 5731 5731 5731 5731 5732 5733 5733 5734 5734 5735 5736
5729 5728 5728 5727 5726 5726 5725 5726 5725 5725 5725 5725 5726 5726 5725 5725 5725 5725 5724 5724 5724 5724 5724 5723 5723 5722 5722 5723 5723 5723 5723 5724 5724 5725 5725 5726 5727 5728
5720 5719 5718 5717 5716 5716 5715 5715 5715 5715 5715 5716 5716 5716 5716 5716 5716 5716 5716 5715 5715 5715 5715 5715 5715 5714 5714 5715 5715 5715 5715 5715 5716 5717 5717 5718 5719 5719
5710 5709 5708 5707 5706 5706 5706 5705 5705 5705 5705 5706 5706 5707 5707 5707 5707 5707 5707 5707 5706 5706 5706 5706 5706 5706 5706 5706 5707 5707 5707 5707 5708 5708 5709 5709 5710 5711
5700 5699 5698 5697 5696 5696 5696 5695 5695 5695 5695 5695 5696 5697 5697 5697 5697 5697 5698 5698 5698 5698 5697 5697 5697 5697 5697 5698 5698 5698 5699 5699 5700 5700 5700 5701 5701 5702
5690 5689 5688 5687 5686 5685 5685 5685 5685 5685 5684 5684 5685 5686 5686 5687 5687 5688 5688 5688 5688 5688 5688 5688 5688 5688 5689 5689 5689 5690 5690 5690 5690 5691 5691 5692 5692 5693
5680 5678 5677 5676 5675 5675 5674 5674 5674 5674 5674 5674 5674 5675 5676 5676 5677 5677 5678 5678 5679 5679 5679 5679 5679 5679 5680 5680 5681 5681 5681 5681 5681 5681 5682 5682 5683 5683
5669 5668 5667 5666 5665 5664 5663 5663 5663 5663 5663 5663 5663 5664 5665 5665 5666 5667 5667 5668 5668 5669 5669 5669 5669 5669 5670 5671 5672 5671 5671 5671 5671 5672 5672 5672 5673 5673
5659 5658 5657 5655 5654 5654 5653 5653 5653 5653 5653 5652 5653 5653 5653 5654 5655 5656 5656 5657 5657 5658 5659 5659 5659 5659 5660 5661 5662 5662 5662 5662 5662 5662 5662 5662 5662 5662
5650 5648 5647 5646 5645 5644 5643 5642 5642 5642 5642 5642 5642 5642 5642 5643 5644 5644 5645 5645 5646 5647 5648 5649 5649 5649 5649 5650 5651 5652 5651 5651 5651 5651 5651 5651 5651 5651
5640 5639 5638 5636 5635 5634 5633 5633 5632 5632 5632 5631 5631 5632 5632 5632 5633 5633 5634 5634 5635 5636 5637 5637 5638 5638 5638 5639 5640 5640 5640 5640 5640 5640 5640 5640 5639 5639
5631 5630 5628 5627 5626 5625 5624 5623 5623 5622 5622 5622 5621 5621 5621 5621 5621 5622 5622 5623 5624 5624 5625 5626 5626 5627 5627 5627 5628 5628 5629 5629 5629 5629 5628 5628 5628 5627